Location: Arbon
(43.0005°N, 0.7472°E)
Time: 01:19:52
(UTC+00:00)

S-56A Canister/Altair - Pass Details

Date: 11 December 2020
Orbit: 633 x 2499 km, 38.9° (Epoch: 19 January)

Event Time Altitude Azimuth Distance (km) Brightness Sun altitude
Rises 20:55:23 0° 284° (WNW) 5,775 12.7 -48.8°
Reaches altitude 10° 20:59:50 10° 277° (W) 4,526 11.9 -49.6°
Enters shadow 21:07:23 33° 247° (WSW) 2,632 10.3 -50.9°
